Hourly Weather Namibe

Today, 5 July, Sunday

Time Temperature Precipitation Wind Pressure Humidity
00:00 +22°C° 0 mm 1 mps 758 mmHg 63%
01:00 +22°C° 0 mm 1 mps 759 mmHg 64%
02:00 +22°C° 0 mm 1 mps 758 mmHg 62%
03:00 +22°C° 0 mm 1 mps 758 mmHg 60%
04:00 +22°C° 0 mm 1 mps 758 mmHg 58%
05:00 +22°C° 0 mm 1 mps 758 mmHg 52%
06:00 +21°C° 0 mm 2 mps 758 mmHg 47%
07:00 +23°C° 0 mm 2 mps 758 mmHg 43%
08:00 +26°C° 0 mm 2 mps 759 mmHg 34%
09:00 +30°C° 0 mm 3 mps 759 mmHg 25%
10:00 +34°C° 0 mm 3 mps 759 mmHg 16%
11:00 +35°C° 0 mm 3 mps 758 mmHg 16%
12:00 +36°C° 0 mm 4 mps 757 mmHg 16%
13:00 +37°C° 0 mm 4 mps 757 mmHg 16%
14:00 +35°C° 0 mm 4 mps 757 mmHg 24%
15:00 +33°C° 0 mm 5 mps 756 mmHg 31%
16:00 +30°C° 0 mm 5 mps 756 mmHg 38%
17:00 +28°C° 0 mm 5 mps 757 mmHg 48%
18:00 +26°C° 0 mm 4 mps 757 mmHg 57%
19:00 +23°C° 0 mm 4 mps 758 mmHg 66%
20:00 +24°C° 0 mm 3 mps 759 mmHg 67%
21:00 +22°C° 0 mm 3 mps 759 mmHg 68%
22:00 +23°C° 0 mm 2 mps 760 mmHg 69%
23:00 +23°C° 0 mm 2 mps 760 mmHg 66%

Tomorrow, 6 July, Monday

Time Temperature Precipitation Wind Pressure Humidity
00:00 +23°C° 0 mm 2 mps 760 mmHg 62%
01:00 +23°C° 0 mm 2 mps 760 mmHg 58%
02:00 +21°C° 0 mm 2 mps 759 mmHg 55%
03:00 +21°C° 0 mm 2 mps 759 mmHg 53%
04:00 +21°C° 0 mm 2 mps 759 mmHg 50%
05:00 +21°C° 0 mm 2 mps 759 mmHg 48%
06:00 +21°C° 0 mm 2 mps 759 mmHg 45%
07:00 +23°C° 0 mm 2 mps 759 mmHg 43%
08:00 +25°C° 0 mm 2 mps 759 mmHg 36%
09:00 +28°C° 0 mm 2 mps 759 mmHg 29%
10:00 +31°C° 0 mm 1 mps 760 mmHg 23%
11:00 +31°C° 0 mm 2 mps 759 mmHg 23%
12:00 +33°C° 0 mm 3 mps 758 mmHg 23%
13:00 +33°C° 0 mm 3 mps 758 mmHg 23%
14:00 +32°C° 0 mm 4 mps 757 mmHg 26%
15:00 +30°C° 0 mm 4 mps 757 mmHg 30%
16:00 +29°C° 0 mm 5 mps 757 mmHg 33%
17:00 +27°C° 0 mm 4 mps 757 mmHg 44%
18:00 +25°C° 0 mm 3 mps 757 mmHg 55%
19:00 +23°C° 0 mm 2 mps 758 mmHg 65%
20:00 +21°C° 0 mm 2 mps 758 mmHg 64%
21:00 +21°C° 0 mm 2 mps 759 mmHg 63%
22:00 +21°C° 0 mm 3 mps 760 mmHg 62%
23:00 +21°C° 0 mm 3 mps 759 mmHg 58%

Day after tomorrow, 7 July, Tuesday

Time Temperature Precipitation Wind Pressure Humidity
00:00 +21°C° 0 mm 3 mps 759 mmHg 54%
01:00 +21°C° 0 mm 2 mps 759 mmHg 50%
02:00 +20°C° 0 mm 2 mps 758 mmHg 50%
03:00 +20°C° 0 mm 2 mps 758 mmHg 50%
04:00 +19°C° 0 mm 2 mps 758 mmHg 50%
05:00 +19°C° 0 mm 2 mps 758 mmHg 50%
06:00 +19°C° 0 mm 2 mps 758 mmHg 51%
07:00 +19°C° 0 mm 2 mps 758 mmHg 52%
08:00 +24°C° 0 mm 2 mps 758 mmHg 41%
09:00 +27°C° 0 mm 2 mps 758 mmHg 31%
10:00 +31°C° 0 mm 3 mps 758 mmHg 21%
11:00 +33°C° 0 mm 3 mps 757 mmHg 21%
12:00 +34°C° 0 mm 3 mps 757 mmHg 20%
13:00 +35°C° 0 mm 3 mps 756 mmHg 20%
14:00 +34°C° 0 mm 4 mps 755 mmHg 22%
15:00 +33°C° 0 mm 4 mps 755 mmHg 24%
16:00 +32°C° 0 mm 4 mps 754 mmHg 26%
17:00 +28°C° 0 mm 3 mps 755 mmHg 37%
18:00 +25°C° 0 mm 2 mps 755 mmHg 48%
19:00 +22°C° 0 mm 1 mps 755 mmHg 59%
20:00 +22°C° 0 mm 1 mps 756 mmHg 59%
21:00 +22°C° 0 mm 1 mps 756 mmHg 59%
22:00 +21°C° 0 mm 1 mps 757 mmHg 58%
23:00 +21°C° 0 mm 1 mps 757 mmHg 60%

8 July, Wednesday

Time Temperature Precipitation Wind Pressure Humidity
00:00 +20°C° 0 mm 1 mps 756 mmHg 61%
01:00 +19°C° 0 mm 1 mps 756 mmHg 63%
02:00 +19°C° 0 mm 1 mps 756 mmHg 61%
03:00 +19°C° 0 mm 1 mps 756 mmHg 59%
04:00 +19°C° 0 mm 1 mps 756 mmHg 58%
05:00 +20°C° 0 mm 1 mps 756 mmHg 57%
06:00 +19°C° 0 mm 2 mps 757 mmHg 56%
07:00 +19°C° 0 mm 2 mps 757 mmHg 56%
08:00 +22°C° 0 mm 3 mps 757 mmHg 49%
09:00 +26°C° 0 mm 3 mps 758 mmHg 41%
10:00 +29°C° 0 mm 4 mps 758 mmHg 34%
11:00 +29°C° 0 mm 5 mps 757 mmHg 36%
12:00 +30°C° 0 mm 5 mps 757 mmHg 38%
13:00 +30°C° 0 mm 6 mps 756 mmHg 39%
14:00 +29°C° 0 mm 6 mps 756 mmHg 47%
15:00 +28°C° 0 mm 6 mps 756 mmHg 55%
16:00 +27°C° 0 mm 6 mps 756 mmHg 63%
17:00 +25°C° 0 mm 5 mps 757 mmHg 73%
18:00 +23°C° 0 mm 4 mps 757 mmHg 83%
19:00 +21°C° 0 mm 3 mps 758 mmHg 93%
20:00 +21°C° 0 mm 2 mps 759 mmHg 91%
21:00 +21°C° 0 mm 2 mps 759 mmHg 90%
22:00 +22°C° 0 mm 1 mps 759 mmHg 88%
23:00 +21°C° 0 mm 2 mps 759 mmHg 88%

9 July, Thursday

Time Temperature Precipitation Wind Pressure Humidity
00:00 +20°C° 0 mm 2 mps 759 mmHg 89%
01:00 +20°C° 0 mm 2 mps 759 mmHg 90%
02:00 +20°C° 0 mm 2 mps 758 mmHg 88%
03:00 +19°C° 0 mm 2 mps 758 mmHg 86%
04:00 +20°C° 0 mm 1 mps 758 mmHg 85%
05:00 +20°C° 0 mm 1 mps 758 mmHg 83%
06:00 +20°C° 0 mm 1 mps 758 mmHg 82%
07:00 +20°C° 0 mm 1 mps 759 mmHg 80%
08:00 +23°C° 0 mm 2 mps 759 mmHg 66%
09:00 +26°C° 0 mm 2 mps 759 mmHg 51%
10:00 +29°C° 0 mm 2 mps 759 mmHg 37%
11:00 +29°C° 0 mm 3 mps 758 mmHg 38%
12:00 +30°C° 0 mm 4 mps 758 mmHg 38%
13:00 +30°C° 0 mm 5 mps 758 mmHg 39%
14:00 +29°C° 0 mm 5 mps 757 mmHg 43%
15:00 +28°C° 0 mm 5 mps 757 mmHg 47%
16:00 +27°C° 0 mm 4 mps 757 mmHg 51%
17:00 +25°C° 0 mm 4 mps 758 mmHg 61%
18:00 +22°C° 0 mm 4 mps 758 mmHg 71%
19:00 +19°C° 0 mm 3 mps 759 mmHg 81%
20:00 +19°C° 0 mm 3 mps 759 mmHg 79%
21:00 +19°C° 0 mm 3 mps 760 mmHg 76%
22:00 +18°C° 0 mm 2 mps 760 mmHg 73%
23:00 +18°C° 0 mm 2 mps 760 mmHg 71%

10 July, Friday

Time Temperature Precipitation Wind Pressure Humidity
00:00 +18°C° 0 mm 3 mps 759 mmHg 70%
01:00 +17°C° 0 mm 3 mps 759 mmHg 68%
02:00 +17°C° 0 mm 3 mps 759 mmHg 70%
03:00 +17°C° 0 mm 4 mps 759 mmHg 72%
04:00 +16°C° 0 mm 5 mps 758 mmHg 74%
05:00 +15°C° 0 mm 4 mps 759 mmHg 74%
06:00 +15°C° 0 mm 4 mps 759 mmHg 73%
07:00 +15°C° 0 mm 4 mps 759 mmHg 73%
08:00 +20°C° 0 mm 3 mps 759 mmHg 58%
09:00 +24°C° 0 mm 3 mps 760 mmHg 43%
10:00 +28°C° 0 mm 2 mps 760 mmHg 27%
11:00 +29°C° 0 mm 4 mps 759 mmHg 28%
12:00 +30°C° 0 mm 5 mps 758 mmHg 28%
13:00 +32°C° 0 mm 7 mps 758 mmHg 28%
14:00 +31°C° 0 mm 8 mps 758 mmHg 32%
15:00 +29°C° 0 mm 8 mps 757 mmHg 36%
16:00 +28°C° 0 mm 9 mps 757 mmHg 39%
17:00 +24°C° 0 mm 8 mps 757 mmHg 49%
18:00 +21°C° 0 mm 8 mps 758 mmHg 58%
19:00 +18°C° 0 mm 7 mps 758 mmHg 67%
20:00 +17°C° 0 mm 6 mps 758 mmHg 72%
21:00 +16°C° 0 mm 5 mps 758 mmHg 76%
22:00 +15°C° 0 mm 4 mps 758 mmHg 80%
23:00 +15°C° 0 mm 4 mps 758 mmHg 80%
Show more